Time,TemperatureF,DewpointF,PressureIn,WindDirection,WindDirectionDegrees,WindSpeedMPH,WindSpeedGustMPH,Humidity,HourlyPrecipIn,Conditions,Clouds,dailyrainin,SoftwareType,DateUTC
2013-07-05 00:00:00,76.8,74.3,30.15,NNW,332,0.0,1.0,92,0.00,,,0.00,Wunderground v.1.15,2013-07-05 04:00:00,
2013-07-05 00:10:00,76.7,74.2,30.14,WNW,292,1.0,1.0,92,0.00,,,0.00,Wunderground v.1.15,2013-07-05 04:10:00,
2013-07-05 00:20:00,76.8,74.3,30.14,WNW,292,0.0,0.0,92,0.00,,,0.00,Wunderground v.1.15,2013-07-05 04:20:00,
2013-07-05 00:30:00,77.0,74.8,30.13,West,271,0.0,0.0,93,0.00,,,0.00,Wunderground v.1.15,2013-07-05 04:30:00,
2013-07-05 00:40:00,77.6,75.1,30.14,SSE,150,1.0,2.0,92,0.00,,,0.00,Wunderground v.1.15,2013-07-05 04:40:00,
2013-07-05 00:50:00,77.7,75.2,30.14,South,174,2.0,2.0,92,0.89,,,0.02,Wunderground v.1.15,2013-07-05 04:50:00,
2013-07-05 01:00:00,78.1,75.6,30.14,ESE,110,3.0,3.0,92,0.17,,,0.07,Wunderground v.1.15,2013-07-05 05:00:00,
2013-07-05 01:10:00,78.2,75.4,30.14,ENE,60,5.0,5.0,91,0.05,,,0.08,Wunderground v.1.15,2013-07-05 05:10:00,
2013-07-05 01:20:00,76.9,74.1,30.14,South,179,5.0,5.0,91,0.20,,,0.20,Wunderground v.1.15,2013-07-05 05:20:00,
2013-07-05 01:30:00,76.8,74.3,30.14,ESE,113,3.0,3.0,92,0.16,,,0.24,Wunderground v.1.15,2013-07-05 05:30:00,
2013-07-05 01:40:00,77.0,74.8,30.12,East,94,2.0,2.0,93,0.06,,,0.25,Wunderground v.1.15,2013-07-05 05:40:00,
2013-07-05 01:50:00,77.4,75.2,30.13,SE,127,3.0,3.0,93,0.00,,,0.25,Wunderground v.1.15,2013-07-05 05:50:00,
2013-07-05 02:00:00,77.5,74.7,30.13,SSW,195,2.0,2.0,91,0.00,,,0.25,Wunderground v.1.15,2013-07-05 06:00:00,
2013-07-05 02:10:00,77.4,74.2,30.12,SE,129,1.0,1.0,90,0.00,,,0.25,Wunderground v.1.15,2013-07-05 06:10:00,
2013-07-05 02:20:00,77.6,74.4,30.12,SE,138,1.0,1.0,90,0.00,,,0.25,Wunderground v.1.15,2013-07-05 06:20:00,
2013-07-05 02:30:00,78.2,75.4,30.12,SE,124,1.0,1.0,91,0.00,,,0.25,Wunderground v.1.15,2013-07-05 06:30:00,
2013-07-05 02:40:00,79.3,76.1,30.11,East,94,3.0,3.0,90,0.00,,,0.25,Wunderground v.1.15,2013-07-05 06:40:00,
2013-07-05 02:50:00,80.2,76.0,30.11,ENE,73,5.0,5.0,87,0.00,,,0.25,Wunderground v.1.15,2013-07-05 06:50:00,
2013-07-05 03:00:00,80.5,75.9,30.11,SE,129,5.0,5.0,86,0.00,,,0.25,Wunderground v.1.15,2013-07-05 07:00:00,
2013-07-05 03:10:00,80.4,76.2,30.10,SE,129,3.0,3.0,87,0.00,,,0.25,Wunderground v.1.15,2013-07-05 07:10:00,
2013-07-05 03:20:00,80.6,76.4,30.10,ESE,121,4.0,4.0,87,0.00,,,0.25,Wunderground v.1.15,2013-07-05 07:20:00,
2013-07-05 03:30:00,80.1,75.9,30.10,East,91,4.0,10.0,87,0.79,,,0.28,Wunderground v.1.15,2013-07-05 07:30:00,
2013-07-05 03:40:00,78.1,74.6,30.09,East,94,5.0,5.0,89,0.07,,,0.32,Wunderground v.1.15,2013-07-05 07:40:00,
2013-07-05 03:50:00,78.9,75.7,30.09,ESE,108,4.0,4.0,90,0.00,,,0.32,Wunderground v.1.15,2013-07-05 07:50:00,
2013-07-05 04:00:00,79.6,75.4,30.09,ESE,105,5.0,5.0,87,0.00,,,0.32,Wunderground v.1.15,2013-07-05 08:00:00,
2013-07-05 04:10:00,79.9,75.3,30.08,ENE,78,5.0,5.0,86,0.00,,,0.32,Wunderground v.1.15,2013-07-05 08:10:00,
2013-07-05 04:20:00,79.3,75.1,30.08,SE,136,5.0,5.0,87,0.00,,,0.33,Wunderground v.1.15,2013-07-05 08:20:00,
2013-07-05 04:30:00,79.1,75.6,30.09,SSW,198,4.0,8.0,89,0.49,,,0.39,Wunderground v.1.15,2013-07-05 08:30:00,
2013-07-05 04:40:00,78.4,75.6,30.09,SE,146,6.0,6.0,91,0.08,,,0.44,Wunderground v.1.15,2013-07-05 08:40:00,
2013-07-05 04:50:00,78.0,74.5,30.09,SE,134,4.0,4.0,89,0.00,,,0.44,Wunderground v.1.15,2013-07-05 08:50:00,
2013-07-05 05:00:00,78.7,75.5,30.08,SE,143,4.0,4.0,90,0.00,,,0.44,Wunderground v.1.15,2013-07-05 09:00:00,
2013-07-05 05:10:00,79.1,75.9,30.09,SW,221,3.0,7.0,90,0.00,,,0.44,Wunderground v.1.15,2013-07-05 09:10:00,
2013-07-05 05:40:00,78.6,75.4,30.08,SE,124,3.0,8.0,90,0.00,,,0.44,Wunderground v.1.15,2013-07-05 09:40:00,
2013-07-05 05:50:00,79.6,76.1,30.09,East,88,4.0,5.0,89,0.00,,,0.44,Wunderground v.1.15,2013-07-05 09:50:00,
2013-07-05 06:00:00,79.7,74.8,30.09,ESE,108,6.0,6.0,85,0.00,,,0.45,Wunderground v.1.15,2013-07-05 10:00:00,
2013-07-05 06:10:00,80.2,74.9,30.09,ESE,105,5.0,5.0,84,0.00,,,0.45,Wunderground v.1.15,2013-07-05 10:10:00,
2013-07-05 06:20:00,80.4,74.8,30.09,ENE,73,5.0,5.0,83,0.00,,,0.45,Wunderground v.1.15,2013-07-05 10:20:00,
2013-07-05 06:40:00,80.8,74.8,30.10,ESE,110,5.0,5.0,82,0.00,,,0.45,Wunderground v.1.15,2013-07-05 10:40:00,
2013-07-05 06:50:00,81.1,75.8,30.10,East,85,5.0,9.0,84,0.00,,,0.45,Wunderground v.1.15,2013-07-05 10:50:00,
2013-07-05 07:00:00,80.9,75.6,30.10,ESE,102,6.0,6.0,84,0.00,,,0.45,Wunderground v.1.15,2013-07-05 11:00:00,
2013-07-05 07:20:00,81.0,76.1,30.11,ENE,75,5.0,5.0,85,0.00,,,0.45,Wunderground v.1.15,2013-07-05 11:20:00,
2013-07-05 07:40:00,81.4,76.1,30.11,East,94,6.0,8.0,84,0.00,,,0.45,Wunderground v.1.15,2013-07-05 11:40:00,
2013-07-05 07:50:00,81.0,75.0,30.11,East,101,6.0,9.0,82,0.00,,,0.45,Wunderground v.1.15,2013-07-05 11:50:00,
2013-07-05 08:00:00,80.9,73.0,30.12,ESE,103,6.0,6.0,77,0.00,,,0.45,Wunderground v.1.15,2013-07-05 12:00:00,
2013-07-05 08:10:00,80.8,75.2,30.12,SE,141,5.0,13.0,83,0.00,,,0.45,Wunderground v.1.15,2013-07-05 12:10:00,
2013-07-05 08:20:00,78.7,74.5,30.12,ESE,106,7.0,7.0,87,0.10,,,0.47,Wunderground v.1.15,2013-07-05 12:20:00,
2013-07-05 08:30:00,80.1,76.6,30.12,East,91,3.0,3.0,89,0.04,,,0.47,Wunderground v.1.15,2013-07-05 12:30:00,
2013-07-05 09:00:00,82.8,77.1,30.13,East,86,8.0,12.0,83,0.00,,,0.47,Wunderground v.1.15,2013-07-05 13:00:00,
2013-07-05 09:10:00,82.4,76.7,30.13,ESE,118,9.0,9.0,83,0.00,,,0.47,Wunderground v.1.15,2013-07-05 13:10:00,
2013-07-05 09:20:00,82.3,75.1,30.13,SE,129,8.0,10.0,79,0.00,,,0.47,Wunderground v.1.15,2013-07-05 13:20:00,
2013-07-05 09:30:00,82.0,75.6,30.13,ESE,117,6.0,6.0,81,0.00,,,0.47,Wunderground v.1.15,2013-07-05 13:30:00,
2013-07-05 09:40:00,81.0,75.0,30.13,East,79,8.0,9.0,82,0.00,,,0.47,Wunderground v.1.15,2013-07-05 13:40:00,
2013-07-05 09:50:00,81.2,75.2,30.13,East,84,7.0,7.0,82,0.00,,,0.47,Wunderground v.1.15,2013-07-05 13:50:00,
2013-07-05 10:00:00,82.0,76.0,30.13,ESE,112,5.0,6.0,82,0.00,,,0.47,Wunderground v.1.15,2013-07-05 14:00:00,
2013-07-05 10:10:00,82.5,76.1,30.13,ESE,105,6.0,10.0,81,0.00,,,0.47,Wunderground v.1.15,2013-07-05 14:10:00,
2013-07-05 10:20:00,83.1,76.7,30.13,East,82,7.0,7.0,81,0.00,,,0.47,Wunderground v.1.15,2013-07-05 14:20:00,
2013-07-05 10:40:00,84.2,76.6,30.14,ENE,62,8.0,9.0,78,0.00,,,0.47,Wunderground v.1.15,2013-07-05 14:40:00,
2013-07-05 10:50:00,84.2,76.6,30.13,East,101,8.0,8.0,78,0.00,,,0.47,Wunderground v.1.15,2013-07-05 14:50:00,
2013-07-05 11:00:00,84.1,76.5,30.13,SE,132,8.0,10.0,78,0.00,,,0.47,Wunderground v.1.15,2013-07-05 15:00:00,
2013-07-05 11:10:00,84.6,76.6,30.14,ESE,115,8.0,8.0,77,0.00,,,0.47,Wunderground v.1.15,2013-07-05 15:10:00,
2013-07-05 11:20:00,85.4,77.0,30.13,SSE,153,8.0,11.0,76,0.00,,,0.47,Wunderground v.1.15,2013-07-05 15:20:00,
2013-07-05 11:30:00,84.8,77.2,30.14,ESE,103,7.0,7.0,78,0.00,,,0.47,Wunderground v.1.15,2013-07-05 15:30:00,
2013-07-05 11:40:00,83.8,76.6,30.14,ENE,68,8.0,14.0,79,0.00,,,0.47,Wunderground v.1.15,2013-07-05 15:40:00,
2013-07-05 11:50:00,83.0,75.8,30.14,ESE,121,10.0,11.0,79,0.00,,,0.47,Wunderground v.1.15,2013-07-05 15:50:00,
2013-07-05 12:00:00,83.2,75.6,30.14,ESE,118,9.0,12.0,78,0.00,,,0.47,Wunderground v.1.15,2013-07-05 16:00:00,
2013-07-05 12:10:00,83.7,76.5,30.14,ESE,104,9.0,9.0,79,0.00,,,0.47,Wunderground v.1.15,2013-07-05 16:10:00,
2013-07-05 12:20:00,83.8,77.0,30.13,ENE,77,8.0,10.0,80,0.00,,,0.47,Wunderground v.1.15,2013-07-05 16:20:00,
2013-07-05 12:30:00,83.8,76.2,30.14,SE,134,6.0,6.0,78,0.00,,,0.47,Wunderground v.1.15,2013-07-05 16:30:00,
2013-07-05 12:40:00,84.9,77.7,30.13,ESE,116,6.0,13.0,79,0.00,,,0.47,Wunderground v.1.15,2013-07-05 16:40:00,
2013-07-05 12:50:00,85.4,77.4,30.14,SE,146,7.0,7.0,77,0.00,,,0.47,Wunderground v.1.15,2013-07-05 16:50:00,
2013-07-05 13:00:00,84.7,77.1,30.14,East,82,7.0,8.0,78,0.00,,,0.47,Wunderground v.1.15,2013-07-05 17:00:00,
2013-07-05 13:10:00,83.4,75.8,30.14,ESE,108,8.0,8.0,78,0.00,,,0.47,Wunderground v.1.15,2013-07-05 17:10:00,
2013-07-05 13:20:00,82.5,74.9,30.13,East,86,7.0,7.0,78,0.00,,,0.47,Wunderground v.1.15,2013-07-05 17:20:00,
2013-07-05 13:30:00,82.8,75.2,30.14,ENE,57,7.0,7.0,78,0.00,,,0.47,Wunderground v.1.15,2013-07-05 17:30:00,
2013-07-05 13:40:00,82.9,75.7,30.13,East,101,7.0,7.0,79,0.00,,,0.47,Wunderground v.1.15,2013-07-05 17:40:00,
2013-07-05 13:50:00,82.8,76.4,30.13,ESE,106,6.0,6.0,81,0.00,,,0.47,Wunderground v.1.15,2013-07-05 17:50:00,
2013-07-05 14:00:00,82.5,76.1,30.13,ESE,108,6.0,6.0,81,0.00,,,0.47,Wunderground v.1.15,2013-07-05 18:00:00,
2013-07-05 14:10:00,82.5,76.4,30.13,NE,34,5.0,11.0,82,0.00,,,0.47,Wunderground v.1.15,2013-07-05 18:10:00,
2013-07-05 14:20:00,82.9,76.1,30.13,ESE,114,6.0,6.0,80,0.00,,,0.47,Wunderground v.1.15,2013-07-05 18:20:00,
2013-07-05 14:30:00,80.3,75.4,30.12,East,86,8.0,8.0,85,0.21,,,0.60,Wunderground v.1.15,2013-07-05 18:30:00,
2013-07-05 14:40:00,80.7,76.5,30.12,East,92,5.0,5.0,87,0.05,,,0.60,Wunderground v.1.15,2013-07-05 18:40:00,
2013-07-05 14:50:00,81.2,76.6,30.12,SE,127,6.0,6.0,86,0.00,,,0.60,Wunderground v.1.15,2013-07-05 18:50:00,
2013-07-05 15:00:00,80.6,75.7,30.12,ESE,105,6.0,7.0,85,0.00,,,0.61,Wunderground v.1.15,2013-07-05 19:00:00,
2013-07-05 15:10:00,80.9,76.7,30.11,ESE,116,6.0,6.0,87,0.00,,,0.61,Wunderground v.1.15,2013-07-05 19:10:00,
2013-07-05 15:20:00,82.1,77.8,30.11,SE,124,5.0,5.0,87,0.00,,,0.61,Wunderground v.1.15,2013-07-05 19:20:00,
2013-07-05 15:30:00,82.6,76.9,30.11,South,174,6.0,6.0,83,0.00,,,0.61,Wunderground v.1.15,2013-07-05 19:30:00,
2013-07-05 15:40:00,82.8,76.7,30.11,East,81,7.0,9.0,82,0.00,,,0.61,Wunderground v.1.15,2013-07-05 19:40:00,
2013-07-05 15:50:00,83.0,76.6,30.10,ESE,116,7.0,7.0,81,0.00,,,0.61,Wunderground v.1.15,2013-07-05 19:50:00,
2013-07-05 16:00:00,84.1,76.9,30.10,East,83,7.0,7.0,79,0.00,,,0.61,Wunderground v.1.15,2013-07-05 20:00:00,
2013-07-05 16:10:00,84.8,77.2,30.09,SE,140,8.0,8.0,78,0.00,,,0.61,Wunderground v.1.15,2013-07-05 20:10:00,
2013-07-05 16:20:00,84.8,77.2,30.09,East,86,6.0,10.0,78,0.00,,,0.61,Wunderground v.1.15,2013-07-05 20:20:00,
2013-07-05 16:30:00,84.7,77.8,30.09,SE,140,7.0,7.0,80,0.00,,,0.61,Wunderground v.1.15,2013-07-05 20:30:00,
2013-07-05 16:40:00,84.5,77.3,30.08,East,100,6.0,6.0,79,0.00,,,0.61,Wunderground v.1.15,2013-07-05 20:40:00,
2013-07-05 16:50:00,84.7,77.1,30.08,ENE,62,6.0,6.0,78,0.00,,,0.61,Wunderground v.1.15,2013-07-05 20:50:00,
2013-07-05 17:00:00,85.1,77.1,30.08,ENE,70,6.0,11.0,77,0.00,,,0.61,Wunderground v.1.15,2013-07-05 21:00:00,
2013-07-05 17:10:00,85.0,77.4,30.08,SE,127,7.0,7.0,78,0.00,,,0.61,Wunderground v.1.15,2013-07-05 21:10:00,
2013-07-05 17:20:00,84.2,76.6,30.08,East,87,8.0,10.0,78,0.00,,,0.61,Wunderground v.1.15,2013-07-05 21:20:00,
2013-07-05 17:30:00,83.8,76.2,30.07,ESE,110,6.0,6.0,78,0.00,,,0.61,Wunderground v.1.15,2013-07-05 21:30:00,
2013-07-05 17:40:00,83.5,73.5,30.07,ESE,119,8.0,8.0,72,0.00,,,0.61,Wunderground v.1.15,2013-07-05 21:40:00,
2013-07-05 17:50:00,83.6,76.0,30.07,SE,132,6.0,6.0,78,0.00,,,0.61,Wunderground v.1.15,2013-07-05 21:50:00,
2013-07-05 18:00:00,83.8,75.8,30.07,SE,138,7.0,7.0,77,0.00,,,0.61,Wunderground v.1.15,2013-07-05 22:00:00,
2013-07-05 18:10:00,83.6,76.8,30.07,SE,129,8.0,8.0,80,0.00,,,0.61,Wunderground v.1.15,2013-07-05 22:10:00,
2013-07-05 18:20:00,83.3,75.7,30.07,SE,138,7.0,14.0,78,0.00,,,0.61,Wunderground v.1.15,2013-07-05 22:20:00,
2013-07-05 18:30:00,83.5,75.5,30.07,ESE,122,7.0,7.0,77,0.00,,,0.61,Wunderground v.1.15,2013-07-05 22:30:00,
2013-07-05 18:40:00,83.6,76.0,30.07,SSE,162,7.0,7.0,78,0.00,,,0.61,Wunderground v.1.15,2013-07-05 22:40:00,
2013-07-05 18:50:00,83.3,75.7,30.08,ESE,103,7.0,7.0,78,0.00,,,0.61,Wunderground v.1.15,2013-07-05 22:50:00,
2013-07-05 18:59:00,83.1,75.1,30.08,ESE,110,6.0,8.0,77,0.00,,,0.61,Wunderground v.1.15,2013-07-05 22:59:00,
2013-07-05 19:10:00,83.1,75.1,30.09,ENE,77,7.0,7.0,77,0.00,,,0.61,Wunderground v.1.15,2013-07-05 23:10:00,
2013-07-05 19:20:00,83.1,75.5,30.09,SE,127,7.0,7.0,78,0.00,,,0.61,Wunderground v.1.15,2013-07-05 23:20:00,
2013-07-05 19:30:00,82.9,75.7,30.09,SSW,210,6.0,7.0,79,0.00,,,0.61,Wunderground v.1.15,2013-07-05 23:30:00,
2013-07-05 19:40:00,82.1,73.4,30.09,SSE,149,5.0,5.0,75,0.00,,,0.61,Wunderground v.1.15,2013-07-05 23:40:00,
2013-07-05 19:50:00,82.3,74.0,30.09,SE,141,4.0,4.0,76,0.00,,,0.61,Wunderground v.1.15,2013-07-05 23:50:00,
2013-07-05 20:00:00,82.6,75.4,30.09,SE,136,5.0,5.0,79,0.00,,,0.61,Wunderground v.1.15,2013-07-06 00:00:00,
2013-07-05 20:10:00,82.6,75.4,30.09,ESE,122,6.0,6.0,79,0.00,,,0.61,Wunderground v.1.15,2013-07-06 00:10:00,
2013-07-05 20:20:00,82.5,74.9,30.10,ESE,108,6.0,10.0,78,0.00,,,0.61,Wunderground v.1.15,2013-07-06 00:20:00,
2013-07-05 20:30:00,82.6,74.7,30.10,East,90,7.0,10.0,77,0.00,,,0.61,Wunderground v.1.15,2013-07-06 00:30:00,
2013-07-05 20:40:00,82.6,74.7,30.10,ESE,115,7.0,7.0,77,0.00,,,0.61,Wunderground v.1.15,2013-07-06 00:40:00,
2013-07-05 20:49:00,82.5,74.9,30.10,East,92,6.0,7.0,78,0.00,,,0.61,Wunderground v.1.15,2013-07-06 00:49:00,
2013-07-05 21:00:00,82.5,75.3,30.10,SE,134,7.0,8.0,79,0.00,,,0.61,Wunderground v.1.15,2013-07-06 01:00:00,
2013-07-05 21:10:00,82.3,75.5,30.11,East,96,6.0,6.0,80,0.00,,,0.61,Wunderground v.1.15,2013-07-06 01:10:00,
2013-07-05 21:19:00,82.3,75.5,30.11,ESE,113,6.0,6.0,80,0.00,,,0.61,Wunderground v.1.15,2013-07-06 01:19:00,
2013-07-05 21:30:00,82.3,75.5,30.11,East,100,5.0,8.0,80,0.00,,,0.61,Wunderground v.1.15,2013-07-06 01:30:00,
2013-07-05 21:40:00,82.2,75.4,30.11,ESE,117,4.0,4.0,80,0.00,,,0.61,Wunderground v.1.15,2013-07-06 01:40:00,
2013-07-05 21:49:00,82.1,74.9,30.11,East,94,5.0,10.0,79,0.00,,,0.61,Wunderground v.1.15,2013-07-06 01:49:00,
2013-07-05 22:00:00,82.2,75.4,30.11,SE,124,5.0,5.0,80,0.00,,,0.61,Wunderground v.1.15,2013-07-06 02:00:00,
2013-07-05 22:10:00,82.1,75.3,30.11,East,98,5.0,5.0,80,0.00,,,0.61,Wunderground v.1.15,2013-07-06 02:10:00,
2013-07-05 22:19:00,82.1,74.9,30.12,SE,132,5.0,5.0,79,0.00,,,0.61,Wunderground v.1.15,2013-07-06 02:19:00,
2013-07-05 22:30:00,82.2,75.4,30.12,East,85,6.0,7.0,80,0.00,,,0.61,Wunderground v.1.15,2013-07-06 02:30:00,
2013-07-05 22:40:00,82.1,74.6,30.12,SE,132,5.0,5.0,78,0.00,,,0.61,Wunderground v.1.15,2013-07-06 02:40:00,
2013-07-05 22:50:00,82.2,75.0,30.12,East,101,4.0,6.0,79,0.00,,,0.61,Wunderground v.1.15,2013-07-06 02:50:00,
2013-07-05 23:00:00,82.1,75.3,30.13,SE,129,5.0,5.0,80,0.00,,,0.61,Wunderground v.1.15,2013-07-06 03:00:00,
2013-07-05 23:10:00,82.1,75.3,30.13,SE,127,5.0,6.0,80,0.00,,,0.61,Wunderground v.1.15,2013-07-06 03:10:00,
2013-07-05 23:20:00,82.1,75.7,30.13,SE,127,5.0,5.0,81,0.00,,,0.61,Wunderground v.1.15,2013-07-06 03:20:00,
2013-07-05 23:30:00,82.0,76.0,30.13,SE,129,5.0,5.0,82,0.00,,,0.61,Wunderground v.1.15,2013-07-06 03:30:00,
2013-07-05 23:39:00,81.9,75.9,30.14,East,89,4.0,4.0,82,0.00,,,0.61,Wunderground v.1.15,2013-07-06 03:39:00,
2013-07-05 23:50:00,81.9,75.5,30.14,East,101,5.0,10.0,81,0.00,,,0.61,Wunderground v.1.15,2013-07-06 03:50:00,